Regional Weather Roundup
Issued by NWS

Home | Current Version | Previous Version | Graphics & Text | Print | Product List | Glossary Off
Versions: 1 2 3 4 5 6 7 8 9 10 11 12 13 14 15 16 17 18 19 20 21 22 23 24 25 26 27 28 29 30 31 32 33 34 35 36 37 38 39 40 41 42 43 44 45 46 47 48 49 50

000
ASUS43 KDMX 251506
RWRIA

WEATHER ROUNDUP FOR IOWA
NATIONAL WEATHER SERVICE DES MOINES IA
1000 AM CDT TUE JUL 25 2017

NOTE: "FAIR" INDICATES FEW OR NO CLOUDS BELOW 12,000 FEET WITH NO
SIGNIFICANT WEATHER AND/OR OBSTRUCTIONS TO VISIBILITY.

* - THESE STATIONS ARE NOT NWS STATIONS...THUS NOT UNDER NWS
QUALITY CONTROL.  THEY ALSO DO NOT REPORT WEATHER SUCH
AS PRECIPITATION OR FOG.

IAZ001>003-012>014-020>022-031>034-043>046-251600-
   NORTHWEST IOWA

CITY           SKY/WX    TMP DP  RH WIND       PRES   REMARKS
CARROLL *      SUNNY     77  68  73 S20       30.02F
CHEROKEE *     SUNNY     79  69  70 S17       29.98F HX  81
DENISON *      SUNNY     79  68  69 S10G25    30.03S HX  81
ORANGE CITY *  SUNNY     79  70  73 S14G21    29.96F HX  81
SHELDON *      SUNNY     79  68  69 S17G24    29.94F HX  81
SIOUX CITY     SUNNY     81  71  71 S12       29.96F HX  85
SPENCER        SUNNY     78  66  66 S17G25    29.98F HX  80
STORM LAKE *   SUNNY     77  68  73 S17G23    30.00F
$$

IAZ055>058-069>071-079>083-090>094-251600-
   SOUTHWEST IOWA

CITY           SKY/WX    TMP DP  RH WIND       PRES   REMARKS
ATLANTIC *     SUNNY     81  68  65 S13G18    30.05S HX  83
AUDUBON *      SUNNY     79  70  73 S10G20    30.05F HX  81
CLARINDA *     SUNNY     79  70  73 S8        30.08S HX  81
COUNCIL BLFS * SUNNY     79  72  78 S14       30.03S HX  82
CRESTON *      SUNNY     79  68  69 SE13      30.09S HX  81
HARLAN  *      SUNNY     79  68  69 S15       30.06F HX  81
LAMONI         SUNNY     77  68  73 S9        30.09F
RED OAK *      SUNNY     79  70  73 S15       30.05S HX  81
SHENANDOAH *   SUNNY     81  70  69 S10       30.05F HX  84
$$

IAZ047>049-059>061-072>074-084-251600-
   CENTRAL IOWA

CITY           SKY/WX    TMP DP  RH WIND       PRES   REMARKS
AMES           SUNNY     76  70  82 S16       30.07S
ANKENY *       SUNNY     77  68  73 S15       30.08S
BOONE *        SUNNY     77  68  73 S13G21    30.06S
CHARITON *     SUNNY     77  68  73 S13       30.10R
DES MOINES     MOSUNNY   79  67  66 S16       30.07F HX  81
GRINNELL*      SUNNY     74  67  79 SE14      30.11F
KNOXVILLE *    SUNNY     77  68  73 S12       30.08F
MARSHALLTOWN   SUNNY     75  68  78 SE16      30.08F
NEWTON *       SUNNY     73  68  83 S15       30.09F
PELLA *        SUNNY     77  66  68 S9        30.11S
$$

IAZ004>006-015-016-023>025-035-036-251600-
   NORTH CENTRAL IOWA

CITY           SKY/WX    TMP DP  RH WIND       PRES   REMARKS
ALGONA *       SUNNY     77  68  73 S18G26    30.01S
CLARION *      SUNNY     75  70  83 S16G25    30.05S
ESTHERVILLE    SUNNY     75  67  76 S18G26    29.97F
FORT DODGE *   SUNNY     77  64  65 S21       30.04S
MASON CITY     CLOUDY    73  66  78 S16       30.07R
FOREST CITY *    N/A     75  66  73 S16       30.05R
WEBSTER CITY * SUNNY     75  68  78 S14G21    30.03S
IOWA FALLS *     N/A     75  67  77 S14       30.09R
$$

IAZ007>011-017>019-026>030-037>042-050>054-066-251600-
   NORTHEAST IOWA

CITY           SKY/WX    TMP DP  RH WIND       PRES   REMARKS
CEDAR RAPIDS   SUNNY     71  66  84 S9        30.13S
CHARLES CITY * MOSUNNY   70  66  88 SE9       30.10S
DECORAH *      CLOUDY    64  61  88 SE6       30.15R
DUBUQUE        SUNNY     69  62  78 SE10      30.17R
MONTICELLO *   SUNNY     72  63  73 SE9       30.15S
WATERLOO       MOSUNNY   72  64  76 SE12      30.09F
$$

IAZ064-065-067-068-078-251600-
   EAST CENTRAL IOWA

CITY           SKY/WX    TMP DP  RH WIND       PRES   REMARKS
DAVENPORT      SUNNY     72  63  73 SE7       30.17F
IOWA CITY      SUNNY     73  65  75 SE9       30.15F
MT. PLEASANT * SUNNY     75  64  68 SE8       30.14F
MUSCATINE *    SUNNY     73  63  68 SE10      30.14F
QUAD CITIES    SUNNY     73  64  73 VRB7      30.15F
$$

IAZ062-063-075>077-085>089-095>099-251600-
   SOUTHEAST IOWA

CITY           SKY/WX    TMP DP  RH WIND       PRES   REMARKS
BURLINGTON     SUNNY     74  66  76 SE5       30.14F
FAIRFIELD *    SUNNY     75  64  69 S10       30.13S
FORT MADISON * SUNNY     73  66  78 SE6       30.15R
KEOKUK *       SUNNY     75  66  73 SE5       30.13S
OSKALOOSA *      N/A     75  66  73 SE9       30.11F
CENTERVILLE *    N/A     77  68  73 SE6       30.13S
OTTUMWA        SUNNY     78  67  68 SE9       30.12F HX  80
WASHINGTON *   SUNNY     73  66  78 S8G14     30.15S
$$

ABBREVIATIONS USED IN REMARKS
   TC - TEMPERATURES IN CELSIUS
  WCI - WIND CHILL INDEX
   HX - HEAT INDEX
  VSB - VISIBILITY
$$





USA.gov is the U.S. government's official web portal to all federal, state and local government web resources and services.